QFA439 YMLT-YMML

Flight info

Callsign QFA439
Flight time 0h 52m
Altitude 30000
Route LT H215 RAZZI W687 ML
Aircraft B738/M-SDE2E3FGHIRWXY/LB1

Departure

Time 2026-04-14 10:44
Airport Launceston Airport (YMLT)

Arrival

Time 2026-04-14 11:36
Airport Melbourne Airport (YMML)
Time Latitude Longitude Altitude Speed Heading
2026-04-14 10:21 -41.54315 147.20681 582 ft 0 kts 296°
2026-04-14 10:39 -41.54300 147.20677 582 ft 2 kts 25°
2026-04-14 10:39 -41.54334 147.20757 583 ft 15 kts 143°
2026-04-14 10:39 -41.54415 147.20808 583 ft 11 kts 134°
2026-04-14 10:39 -41.54469 147.20875 585 ft 10 kts 141°
2026-04-14 10:40 -41.54527 147.20930 589 ft 10 kts 146°
2026-04-14 10:40 -41.54570 147.20966 589 ft 3 kts 147°
2026-04-14 10:40 -41.54593 147.20986 589 ft 5 kts 147°
2026-04-14 10:40 -41.54626 147.21015 588 ft 6 kts 147°
2026-04-14 10:41 -41.54684 147.21065 587 ft 21 kts 147°
2026-04-14 10:41 -41.54879 147.21233 582 ft 38 kts 147°
2026-04-14 10:41 -41.55099 147.21418 583 ft 36 kts 149°
2026-04-14 10:41 -41.55226 147.21538 586 ft 0 kts 94°
2026-04-14 10:42 -41.55227 147.21579 587 ft 13 kts 90°
2026-04-14 10:43 -41.55174 147.21658 590 ft 13 kts 355°
2026-04-14 10:43 -41.55092 147.21605 591 ft 21 kts 328°
2026-04-14 10:43 -41.54764 147.21326 588 ft 90 kts 327°
2026-04-14 10:43 -41.54070 147.20719 601 ft 145 kts 327°
2026-04-14 10:44 -41.53184 147.19939 1062 ft 157 kts 327°
2026-04-14 10:44 -41.52235 147.19045 1569 ft 177 kts 323°
2026-04-14 10:44 -41.51184 147.18084 2249 ft 188 kts 326°
2026-04-14 10:44 -41.50019 147.17216 2918 ft 196 kts 329°
2026-04-14 10:45 -41.48777 147.16422 3531 ft 200 kts 329°
2026-04-14 10:45 -41.47508 147.15634 4101 ft 203 kts 326°
2026-04-14 10:45 -41.46244 147.14838 4700 ft 204 kts 324°
2026-04-14 10:45 -41.44944 147.14009 5306 ft 210 kts 324°
2026-04-14 10:46 -41.43614 147.13152 5956 ft 214 kts 323°
2026-04-14 10:46 -41.42258 147.12300 6623 ft 217 kts 325°
2026-04-14 10:46 -41.40844 147.11490 7287 ft 219 kts 327°
2026-04-14 10:46 -41.39427 147.10734 7952 ft 220 kts 327°
2026-04-14 10:47 -41.38004 147.09985 8617 ft 220 kts 327°
2026-04-14 10:47 -41.36583 147.09241 9272 ft 219 kts 327°
2026-04-14 10:47 -41.35186 147.08510 9905 ft 218 kts 327°
2026-04-14 10:47 -41.33775 147.07773 10475 ft 217 kts 327°
2026-04-14 10:48 -41.32372 147.07039 11038 ft 217 kts 327°
2026-04-14 10:48 -41.30965 147.06303 11549 ft 221 kts 326°
2026-04-14 10:48 -41.29454 147.05495 11716 ft 246 kts 327°
2026-04-14 10:48 -41.27791 147.04606 11904 ft 269 kts 328°
2026-04-14 10:49 -41.25978 147.03643 12071 ft 292 kts 329°
2026-04-14 10:49 -41.24013 147.02607 12246 ft 315 kts 329°
2026-04-14 10:49 -41.21901 147.01501 12401 ft 337 kts 330°
2026-04-14 10:49 -41.19657 147.00332 12566 ft 355 kts 330°
2026-04-14 10:50 -41.17382 146.99155 12971 ft 364 kts 331°
2026-04-14 10:50 -41.15001 146.97930 13591 ft 369 kts 331°
2026-04-14 10:50 -41.12593 146.96693 14177 ft 372 kts 330°
2026-04-14 10:50 -41.10168 146.95445 14748 ft 376 kts 330°
2026-04-14 10:51 -41.07718 146.94181 15342 ft 379 kts 330°
2026-04-14 10:51 -41.05251 146.92907 15950 ft 382 kts 330°
2026-04-14 10:51 -41.02763 146.91622 16505 ft 386 kts 330°
2026-04-14 10:51 -41.00243 146.90317 17048 ft 391 kts 330°
2026-04-14 10:52 -40.97704 146.89005 17618 ft 394 kts 330°
2026-04-14 10:52 -40.95142 146.87682 18179 ft 397 kts 330°
2026-04-14 10:52 -40.92554 146.86346 18660 ft 401 kts 330°
2026-04-14 10:52 -40.89942 146.85000 19166 ft 403 kts 330°
2026-04-14 10:53 -40.87323 146.83651 19690 ft 405 kts 331°
2026-04-14 10:53 -40.84691 146.82298 20213 ft 407 kts 331°
2026-04-14 10:53 -40.82041 146.80935 20688 ft 410 kts 331°
2026-04-14 10:53 -40.79380 146.79567 21150 ft 412 kts 331°
2026-04-14 10:54 -40.76696 146.78189 21640 ft 415 kts 331°
2026-04-14 10:54 -40.74000 146.76805 22094 ft 418 kts 331°
2026-04-14 10:54 -40.71284 146.75413 22536 ft 420 kts 331°
2026-04-14 10:54 -40.68553 146.74014 22998 ft 422 kts 331°
2026-04-14 10:55 -40.65804 146.72607 23410 ft 425 kts 331°
2026-04-14 10:55 -40.63041 146.71195 23791 ft 427 kts 331°
2026-04-14 10:55 -40.60259 146.69773 24147 ft 429 kts 331°
2026-04-14 10:55 -40.57474 146.68353 24527 ft 430 kts 331°
2026-04-14 10:56 -40.55623 146.67410 24785 ft 431 kts 331°
2026-04-14 10:56 -40.52820 146.65982 25149 ft 433 kts 331°
2026-04-14 10:56 -40.50006 146.64549 25497 ft 435 kts 331°
2026-04-14 10:56 -40.47180 146.63111 25836 ft 436 kts 331°
2026-04-14 10:57 -40.44341 146.61669 26176 ft 438 kts 331°
2026-04-14 10:57 -40.41497 146.60224 26502 ft 439 kts 331°
2026-04-14 10:57 -40.38641 146.58776 26801 ft 441 kts 331°
2026-04-14 10:57 -40.35769 146.57320 27097 ft 443 kts 331°
2026-04-14 10:58 -40.32890 146.55862 27408 ft 444 kts 331°
2026-04-14 10:58 -40.30011 146.54407 27837 ft 443 kts 331°
2026-04-14 10:58 -40.27145 146.52961 28346 ft 440 kts 331°
2026-04-14 10:58 -40.24294 146.51524 28846 ft 437 kts 330°
2026-04-14 10:59 -40.21460 146.50095 29284 ft 436 kts 330°
2026-04-14 10:59 -40.18632 146.48669 29651 ft 435 kts 330°
2026-04-14 10:59 -40.15801 146.47240 30025 ft 436 kts 330°
2026-04-14 11:00 -40.10105 146.44370 30075 ft 440 kts 331°
2026-04-14 11:00 -40.04429 146.41525 30070 ft 434 kts 330°
2026-04-14 11:01 -39.98808 146.38700 30087 ft 434 kts 330°
2026-04-14 11:01 -39.93192 146.35811 30079 ft 434 kts 330°
2026-04-14 11:02 -39.87581 146.32913 30083 ft 434 kts 330°
2026-04-14 11:02 -39.81947 146.30015 30086 ft 435 kts 330°
2026-04-14 11:03 -39.76313 146.27127 30073 ft 436 kts 330°
2026-04-14 11:03 -39.70678 146.24244 30090 ft 435 kts 331°
2026-04-14 11:04 -39.65070 146.21389 30092 ft 436 kts 331°
2026-04-14 11:04 -39.59411 146.18518 30096 ft 437 kts 331°
2026-04-14 11:05 -39.53747 146.15648 30101 ft 437 kts 331°
2026-04-14 11:05 -39.48077 146.12778 30098 ft 438 kts 331°
2026-04-14 11:06 -39.42404 146.09912 30101 ft 438 kts 331°
2026-04-14 11:06 -39.36732 146.07048 30111 ft 437 kts 331°
2026-04-14 11:07 -39.31067 146.04185 30101 ft 437 kts 331°
2026-04-14 11:07 -39.25405 146.01327 30114 ft 436 kts 331°
2026-04-14 11:08 -39.19840 145.98522 30128 ft 436 kts 331°
2026-04-14 11:08 -39.14187 145.95679 30120 ft 436 kts 331°
2026-04-14 11:09 -39.08530 145.92838 30133 ft 436 kts 331°
2026-04-14 11:09 -39.02981 145.90065 30106 ft 416 kts 331°
2026-04-14 11:10 -38.97785 145.87487 30120 ft 386 kts 330°
2026-04-14 11:10 -38.95330 145.86264 30111 ft 372 kts 330°
2026-04-14 11:10 -38.92934 145.85070 30120 ft 358 kts 330°
2026-04-14 11:10 -38.90654 145.83932 30121 ft 345 kts 330°
2026-04-14 11:11 -38.86206 145.81696 30087 ft 347 kts 329°
2026-04-14 11:11 -38.81656 145.79410 30052 ft 355 kts 330°
2026-04-14 11:12 -38.77015 145.77096 30053 ft 360 kts 330°
2026-04-14 11:12 -38.74665 145.75927 29860 ft 365 kts 330°
2026-04-14 11:12 -38.72292 145.74749 29050 ft 368 kts 330°
2026-04-14 11:13 -38.69877 145.73548 27804 ft 379 kts 331°
2026-04-14 11:13 -38.67373 145.72300 26391 ft 393 kts 331°
2026-04-14 11:13 -38.64785 145.71014 25039 ft 405 kts 332°
2026-04-14 11:13 -38.62133 145.69703 23771 ft 413 kts 332°
2026-04-14 11:14 -38.59430 145.68371 22294 ft 419 kts 333°
2026-04-14 11:14 -38.56691 145.67024 20933 ft 422 kts 333°
2026-04-14 11:14 -38.53948 145.65675 19655 ft 423 kts 333°
2026-04-14 11:14 -38.51199 145.64321 18443 ft 423 kts 333°
2026-04-14 11:15 -38.48440 145.62961 17285 ft 427 kts 333°
2026-04-14 11:15 -38.45788 145.61529 17037 ft 409 kts 328°
2026-04-14 11:15 -38.43301 145.59867 16923 ft 389 kts 326°
2026-04-14 11:15 -38.41007 145.58259 16778 ft 374 kts 325°
2026-04-14 11:16 -38.38743 145.56654 16307 ft 370 kts 325°
2026-04-14 11:16 -38.36503 145.55071 15807 ft 367 kts 325°
2026-04-14 11:16 -38.34274 145.53509 15330 ft 364 kts 326°
2026-04-14 11:16 -38.32061 145.51971 14838 ft 362 kts 326°
2026-04-14 11:17 -38.29857 145.50448 14364 ft 359 kts 326°
2026-04-14 11:17 -38.27633 145.48917 13866 ft 358 kts 326°
2026-04-14 11:17 -38.25450 145.47418 13334 ft 354 kts 326°
2026-04-14 11:17 -38.23317 145.45959 12829 ft 342 kts 326°
2026-04-14 11:18 -38.21285 145.44571 12376 ft 331 kts 326°
2026-04-14 11:18 -38.19289 145.43207 11930 ft 321 kts 326°
2026-04-14 11:18 -38.17351 145.41882 11505 ft 312 kts 326°
2026-04-14 11:18 -38.15468 145.40594 11137 ft 302 kts 326°
2026-04-14 11:19 -38.13662 145.39362 11027 ft 289 kts 326°
2026-04-14 11:19 -38.11915 145.38167 10863 ft 282 kts 326°
2026-04-14 11:19 -38.10192 145.36987 10597 ft 279 kts 326°
2026-04-14 11:19 -38.08504 145.35833 10464 ft 272 kts 326°
2026-04-14 11:20 -38.06862 145.34712 10335 ft 264 kts 326°
2026-04-14 11:20 -38.05262 145.33622 10222 ft 257 kts 326°
2026-04-14 11:20 -38.03706 145.32564 10104 ft 250 kts 326°
2026-04-14 11:20 -38.02197 145.31538 9986 ft 242 kts 326°
2026-04-14 11:21 -38.00723 145.30522 9722 ft 241 kts 325°
2026-04-14 11:21 -37.99270 145.29503 9479 ft 239 kts 325°
2026-04-14 11:21 -37.97815 145.28481 9202 ft 239 kts 325°
2026-04-14 11:21 -37.96371 145.27468 9021 ft 234 kts 325°
2026-04-14 11:22 -37.94951 145.26474 8975 ft 232 kts 325°
2026-04-14 11:22 -37.93544 145.25488 8983 ft 231 kts 325°
2026-04-14 11:22 -37.92133 145.24499 8891 ft 234 kts 325°
2026-04-14 11:22 -37.90676 145.23475 8307 ft 251 kts 326°
2026-04-14 11:23 -37.89089 145.22363 7770 ft 262 kts 327°
2026-04-14 11:23 -37.87484 145.21244 7428 ft 264 kts 327°
2026-04-14 11:23 -37.85901 145.20143 7189 ft 262 kts 327°
2026-04-14 11:23 -37.84346 145.19065 7089 ft 248 kts 328°
2026-04-14 11:24 -37.82857 145.18066 6978 ft 235 kts 328°
2026-04-14 11:24 -37.81432 145.17119 6750 ft 229 kts 328°
2026-04-14 11:24 -37.80023 145.16181 6378 ft 229 kts 328°
2026-04-14 11:24 -37.78604 145.15235 5807 ft 236 kts 328°
2026-04-14 11:25 -37.77066 145.14308 5336 ft 250 kts 341°
2026-04-14 11:25 -37.75307 145.14222 5215 ft 260 kts
2026-04-14 11:25 -37.73516 145.14718 5115 ft 268 kts 11°
2026-04-14 11:25 -37.71700 145.15290 5025 ft 267 kts 12°
2026-04-14 11:26 -37.69909 145.15864 4995 ft 264 kts 12°
2026-04-14 11:26 -37.68127 145.16440 4997 ft 265 kts 12°
2026-04-14 11:26 -37.66333 145.17021 4989 ft 266 kts 12°
2026-04-14 11:26 -37.64538 145.17602 4981 ft 267 kts 12°
2026-04-14 11:27 -37.62735 145.18180 4994 ft 268 kts 12°
2026-04-14 11:27 -37.60925 145.18757 4998 ft 269 kts 12°
2026-04-14 11:27 -37.59104 145.19336 4993 ft 270 kts 12°
2026-04-14 11:27 -37.57278 145.19915 4993 ft 270 kts 12°
2026-04-14 11:28 -37.55452 145.20473 4990 ft 269 kts
2026-04-14 11:28 -37.53629 145.20339 4999 ft 260 kts 338°
2026-04-14 11:28 -37.52143 145.19156 4999 ft 252 kts 308°
2026-04-14 11:28 -37.51347 145.17250 5004 ft 246 kts 278°
2026-04-14 11:29 -37.51431 145.15144 4973 ft 241 kts 250°
2026-04-14 11:29 -37.52330 145.13402 4698 ft 239 kts 220°
2026-04-14 11:29 -37.53764 145.12393 4462 ft 235 kts 209°
2026-04-14 11:29 -37.55105 145.11267 4201 ft 230 kts 218°
2026-04-14 11:30 -37.56396 145.10095 3945 ft 227 kts 217°
2026-04-14 11:30 -37.57684 145.08983 3723 ft 220 kts 214°
2026-04-14 11:30 -37.59001 145.08088 3476 ft 210 kts 208°
2026-04-14 11:30 -37.60270 145.07327 3217 ft 194 kts 208°
2026-04-14 11:31 -37.61451 145.06638 2958 ft 180 kts 207°
2026-04-14 11:31 -37.62526 145.06024 2743 ft 161 kts 208°
2026-04-14 11:31 -37.63500 145.05489 2744 ft 150 kts 208°
2026-04-14 11:31 -37.64454 145.04973 2742 ft 147 kts 208°
2026-04-14 11:32 -37.65395 145.04469 2741 ft 147 kts 208°
2026-04-14 11:32 -37.66331 145.03962 2744 ft 147 kts 210°
2026-04-14 11:32 -37.66999 145.03102 2699 ft 140 kts 257°
2026-04-14 11:32 -37.66955 145.01881 2745 ft 142 kts 271°
2026-04-14 11:33 -37.67013 145.00646 2719 ft 141 kts 265°
2026-04-14 11:33 -37.67038 144.99423 2543 ft 143 kts 269°
2026-04-14 11:33 -37.67000 144.98175 2373 ft 141 kts 271°
2026-04-14 11:34 -37.66865 144.95683 2078 ft 142 kts 272°
2026-04-14 11:34 -37.66792 144.94453 1930 ft 145 kts 273°
2026-04-14 11:34 -37.66718 144.93193 1750 ft 143 kts 273°
2026-04-14 11:34 -37.66644 144.91949 1557 ft 143 kts 273°
2026-04-14 11:35 -37.66571 144.90707 1364 ft 142 kts 274°
2026-04-14 11:35 -37.66498 144.89475 1164 ft 140 kts 274°
2026-04-14 11:35 -37.66426 144.88240 990 ft 142 kts 273°
2026-04-14 11:35 -37.66353 144.86983 798 ft 144 kts 273°
2026-04-14 11:36 -37.66285 144.85760 682 ft 143 kts 273°
2026-04-14 11:36 -37.66212 144.84555 425 ft 134 kts 273°
2026-04-14 11:36 -37.66152 144.83480 414 ft 107 kts 274°
2026-04-14 11:36 -37.66165 144.82957 406 ft 29 kts 252°
2026-04-14 11:37 -37.66256 144.82734 396 ft 29 kts 229°
2026-04-14 11:37 -37.66424 144.82752 385 ft 27 kts 121°
2026-04-14 11:37 -37.66461 144.82992 389 ft 32 kts 95°
2026-04-14 11:37 -37.66473 144.83280 399 ft 29 kts 98°
2026-04-14 11:38 -37.66491 144.83532 403 ft 28 kts 95°
2026-04-14 11:38 -37.66500 144.83713 404 ft 27 kts 95°
2026-04-14 11:38 -37.66516 144.83973 403 ft 24 kts 94°
2026-04-14 11:38 -37.66528 144.84187 403 ft 24 kts 94°
2026-04-14 11:39 -37.66517 144.84393 401 ft 23 kts 83°
2026-04-14 11:39 -37.66495 144.84582 405 ft 21 kts 82°
2026-04-14 11:39 -37.66493 144.84760 404 ft 21 kts 130°
2026-04-14 11:39 -37.66626 144.84796 402 ft 20 kts 178°
2026-04-14 11:40 -37.66750 144.84824 398 ft 17 kts 168°
2026-04-14 11:40 -37.66774 144.84835 396 ft 0 kts 156°
2026-04-14 11:40 -37.66775 144.84835 396 ft 0 kts 156°
2026-04-14 11:40 -37.66795 144.84845 396 ft 5 kts 146°
2026-04-14 11:41 -37.66801 144.84893 395 ft 6 kts 84°
2026-04-14 11:41 -37.66798 144.84918 397 ft 1 kts 81°
2026-04-14 11:41 -37.66798 144.84920 397 ft 0 kts 81°